Weather History for Homer, AK

Change the Weather History Date:

Wednesday, September 5, 2012

  Actual Average Record
Temperature  
Mean Temperature 53 °F -  
Max Temperature 55 °F 57 °F 68 °F (1965)
Min Temperature 51 °F 41 °F 29 °F (1960)
Degree Days  
Heating Degree Days 12    
Growing Degree Days 3 (Base 50)    
Moisture  
Dew Point 43 °F    
Average Humidity 69    
Maximum Humidity 83    
Minimum Humidity 62    
Precipitation  
Precipitation 0.01 in - - ()
Sea Level Pressure  
Sea Level Pressure 29.73 in    
Wind  
Wind Speed 8 mph (South)    
Max Wind Speed 12 mph    
Max Gust Speed 20 mph    
Visibility 10 miles    
Events Rain    
Averages and records for this station are not official NWS values.
T = Trace of Precipitation, MM = Missing Value Source: NWS Daily Summary

Daily Weather History Graph

Daily Weather History Graph

Search for Another Location

Airport:

Trip Planner

Search our weather history database for the weather conditions in past years. The results will help you decide how hot, cold, wet, or windy it might be!

Date:

Astronomy

Sep. 05, 2012 Rise Set
Actual Time 7:12 AM AKDT 8:54 PM AKDT
Civil Twilight 6:29 AM AKDT 9:37 PM AKDT
Nautical Twilight 5:34 AM AKDT 10:32 PM AKDT
Astronomical Twilight 4:27 AM AKDT 11:37 PM AKDT
Moon 9:52 PM AKDT (9/5) 2:02 PM AKDT (9/5)
Length of Visible Light 15h 08m
Length of Day
13h 41m
Waning Gibbous, 75% of the Moon is Illuminated
Sep 5
Waning Gibbous
Sep 8
Last Quarter
Sep 15
New
Sep 22
First Quarter
Sep 29
Full

Hourly Weather History & Observations

Time (AKDT) Temp. Dew Point Humidity Pressure Visibility Wind Dir Wind Speed Gust Speed Precip Events Conditions
12:53 AM 55.0 °F 45.0 °F 69% 29.61 in 10.0 mi South 9.2 mph 16.1 mph 0.00 in Rain Light Rain
1:53 AM 54.0 °F 45.0 °F 72% 29.62 in 10.0 mi ESE 9.2 mph 19.6 mph 0.00 in   Mostly Cloudy
2:53 AM 54.0 °F 43.0 °F 66% 29.63 in 10.0 mi SE 5.8 mph - N/A   Overcast
3:53 AM 54.0 °F 41.0 °F 62% 29.62 in 10.0 mi SE 9.2 mph - N/A   Mostly Cloudy
4:53 AM 53.1 °F 43.0 °F 69% 29.62 in 10.0 mi South 6.9 mph - N/A   Overcast
5:53 AM 54.0 °F 43.0 °F 66% 29.61 in 10.0 mi SSE 10.4 mph - N/A   Overcast
6:53 AM 54.0 °F 43.0 °F 66% 29.62 in 10.0 mi South 8.1 mph - N/A   Overcast
7:53 AM 53.1 °F 43.0 °F 69% 29.61 in 10.0 mi Variable 5.8 mph 19.6 mph N/A   Overcast
8:53 AM 55.0 °F 42.1 °F 62% 29.63 in 10.0 mi South 8.1 mph 17.3 mph N/A   Overcast
9:53 AM 55.0 °F 42.1 °F 62% 29.64 in 10.0 mi South 8.1 mph - N/A   Overcast
10:53 AM 54.0 °F 42.1 °F 64% 29.66 in 10.0 mi South 8.1 mph - N/A   Overcast
11:53 AM 54.0 °F 42.1 °F 64% 29.68 in 10.0 mi South 6.9 mph - N/A   Overcast
12:53 PM 54.0 °F 44.1 °F 69% 29.70 in 10.0 mi South 5.8 mph - N/A   Overcast
1:53 PM 54.0 °F 44.1 °F 69% 29.73 in 10.0 mi SW 10.4 mph - N/A   Overcast
2:53 PM 51.1 °F 46.0 °F 83% 29.76 in 7.0 mi SW 11.5 mph - 0.00 in Rain Light Rain
3:53 PM 53.1 °F 46.0 °F 77% 29.78 in 10.0 mi SW 5.8 mph - 0.01 in   Overcast
4:53 PM 54.0 °F 46.0 °F 75% 29.80 in 10.0 mi SSW 6.9 mph - N/A   Overcast
5:53 PM 54.0 °F 45.0 °F 72% 29.82 in 10.0 mi SW 5.8 mph - N/A   Mostly Cloudy
6:53 PM 52.0 °F 44.1 °F 74% 29.84 in 10.0 mi SW 9.2 mph - N/A   Mostly Cloudy
7:53 PM 52.0 °F 43.0 °F 71% 29.86 in 10.0 mi SSW 10.4 mph - N/A   Mostly Cloudy
8:53 PM 51.1 °F 43.0 °F 74% 29.88 in 10.0 mi SSW 9.2 mph - 0.00 in   Mostly Cloudy
9:53 PM 51.1 °F 42.1 °F 71% 29.90 in 10.0 mi SSW 4.6 mph - N/A   Overcast
10:53 PM 52.0 °F 41.0 °F 66% 29.93 in 10.0 mi South 4.6 mph - N/A   Overcast
11:53 PM 51.1 °F 42.1 °F 71% 29.95 in 10.0 mi SW 11.5 mph - N/A   Overcast